EW6171 Weather Reports


time (UTC)temp
C
wind
direction
speed
KPH
gust
KPH
rain 1hr
cm
rain 24hr
cm
rain mn
cm
humidity
%
barometer
mb
20260506020228 -17 10 3.2 19.3 0.00 0.00 0.00 1004.5
20260506015447 -17 10 0.0 8.0 0.00 0.00 0.00 1004.5
20260506014937 -17 147 3.2 19.3 0.00 0.00 0.00 1004.4
20260506014425 -17 10 4.8 19.3 0.00 0.00 0.00 1004.3
20260506013915 -17 10 8.0 22.5 0.00 0.00 0.00 1004.4
20260506013636 -17 10 14.5 22.5 0.00 0.00 0.00 1004.4
20260506012854 -17 10 14.5 20.9 0.00 0.00 0.00 1004.3
20260506012345 -17 10 16.1 20.9 0.00 0.00 0.00 1004.2
20260506011833 -17 10 17.7 19.3 0.00 0.00 0.00 1004.1
20260506011553 -17 10 17.7 22.5 0.00 0.00 0.00 1004.0
20260506010813 -17 10 17.7 22.5 0.00 0.00 0.00 1003.9
20260506010303 -17 10 17.7 24.1 0.00 0.00 0.00 1004.0
20260506010023 -17 10 17.7 24.1 0.00 0.00 0.00 1003.8
20260506005243 -17 10 16.1 20.9 0.00 0.00 0.00 1003.8
20260506004732 -17 10 16.1 24.1 0.00 0.00 0.00 1003.6
20260506004223 -17 10 17.7 24.1 0.00 0.00 0.00 1003.6
20260506003943 -17 10 16.1 22.5 0.00 0.00 0.00 1003.6
20260506003203 -17 10 16.1 20.9 0.00 0.00 0.00 1003.7
20260506002652 -17 10 17.7 24.1 0.00 0.00 0.00 1003.6
20260506002140 -17 10 17.7 24.1 0.00 0.00 0.00 1003.6
20260506001625 -17 10 17.7 24.1 0.00 0.00 0.00 1003.6
20260506001347 -17 10 17.7 24.1 0.00 0.00 0.00 1003.6
20260506000604 -17 10 17.7 22.5 0.00 0.00 0.00 1003.6
20260506000056 -17 10 17.7 24.1 0.00 0.00 0.00 1003.7
20260505235543 -17 10 17.7 24.1 0.00 0.00 0.00 1003.7
20260505235033 -17 10 17.7 25.7 0.00 0.00 0.00 1003.7
20260505234528 -17 185 19.3 25.7 0.00 0.00 0.00 1003.7
20260505234019 -17 10 19.3 25.7 0.00 0.00 0.00 1003.7
20260505233739 -17 168 17.7 24.1 0.00 0.00 0.00 1003.7
20260505233227 -17 10 17.7 25.7 0.00 0.00 0.00 1003.7
20260505232456 -17 10 19.3 25.7 0.00 0.00 0.00 1003.7
20260505232218 -17 10 19.3 25.7 0.00 0.00 0.00 1003.7
20260505231434 -17 10 17.7 25.7 0.00 0.00 0.00 1003.7
20260505230933 -17 10 17.7 24.1 0.00 0.00 0.00 1003.7
20260505230434 -17 10 17.7 24.1 0.00 0.00 0.00 1003.9
20260505225923 -17 210 17.7 22.5 0.00 0.00 0.00 1003.9
20260505225412 -17 163 17.7 27.4 0.00 0.00 0.00 1003.9
20260505224903 -17 10 19.3 27.4 0.00 0.00 0.00 1003.9
20260505224352 -17 10 19.3 25.7 0.00 0.00 0.00 1003.9
20260505223843 -17 10 19.3 25.7 0.00 0.00 0.00 1004.0
20260505223604 -17 10 19.3 24.1 0.00 0.00 0.00 1004.0
20260505222824 -17 10 19.3 24.1 0.00 0.00 0.00 1004.1
20260505222313 -17 10 19.3 24.1 0.00 0.00 0.00 1004.0
20260505221803 -17 10 17.7 22.5 0.00 0.00 0.00 1004.1
20260505221252 -17 10 17.7 24.1 0.00 0.00 0.00 1004.1
20260505220743 -17 10 17.7 24.1 0.00 0.00 0.00 1004.0
20260505220504 -17 10 19.3 25.7 0.00 0.00 0.00 1004.2
20260505215723 -17 10 19.3 25.7 0.00 0.00 0.00 1004.2
20260505215212 -17 161 17.7 24.1 0.00 0.00 0.00 1004.4
20260505214702 -17 10 17.7 24.1 0.00 0.00 0.00 1004.4
20260505214423 -17 10 17.7 24.1 0.00 0.00 0.00 1004.6
20260505213643 -17 10 17.7 22.5 0.00 0.00 0.00 1004.5
20260505213404 -17 10 19.3 25.7 0.00 0.00 0.00 1004.6
20260505212624 -17 153 17.7 25.7 0.00 0.00 0.00 1004.6
20260505212112 -17 163 17.7 24.1 0.00 0.00 0.00 1004.8
20260505211603 -17 10 17.7 22.5 0.00 0.00 0.00 1004.7
20260505211052 -17 10 17.7 24.1 0.00 0.00 0.00 1004.7
20260505210544 -17 10 17.7 24.1 0.00 0.00 0.00 1004.8
20260505210303 -17 10 17.7 24.1 0.00 0.00 0.00 1004.8
20260505205523 -17 10 16.1 24.1 0.00 0.00 0.00 1004.8
20260505205012 -17 10 17.7 22.5 0.00 0.00 0.00 1004.9
20260505204503 -17 10 17.7 24.1 0.00 0.00 0.00 1004.9
20260505204224 -17 10 19.3 24.1 0.00 0.00 0.00 1005.0
20260505203442 -17 158 19.3 24.1 0.00 0.00 0.00 1005.1
20260505202932 -17 145 19.3 24.1 0.00 0.00 0.00 1005.1
20260505202422 -17 10 19.3 24.1 0.00 0.00 0.00 1005.2
20260505201904 -17 10 17.7 22.5 0.00 0.00 0.00 1005.2
20260505201354 -17 184 17.7 25.7 0.00 0.00 0.00 1005.3
20260505200844 -17 10 17.7 25.7 0.00 0.00 0.00 1005.3
20260505200334 -17 10 14.5 24.1 0.00 0.00 0.00 1005.4
20260505200055 -17 10 14.5 22.5 0.00 0.00 0.00 1005.6
20260505195314 -17 10 16.1 25.7 0.00 0.00 0.00 1005.7
20260505194804 -17 204 17.7 25.7 0.00 0.00 0.00 1005.7
20260505194255 -17 10 16.1 25.7 0.00 0.00 0.00 1005.7
20260505193744 -17 10 14.5 25.7 0.00 0.00 0.00 1005.7
20260505193238 -17 10 17.7 24.1 0.00 0.00 0.00 1005.7
20260505192730 -17 10 17.7 24.1 0.00 0.00 0.00 1005.8
20260505192453 -17 214 16.1 25.7 0.00 0.00 0.00 1005.8
20260505191713 -17 202 17.7 25.7 0.00 0.00 0.00 1005.8
20260505191206 -17 10 17.7 24.1 0.00 0.00 0.00 1005.8
20260505190704 -17 10 17.7 24.1 0.00 0.00 0.00 1005.9
20260505190203 -17 191 17.7 24.1 0.00 0.00 0.00 1005.9
20260505185655 -17 214 19.3 25.7 0.00 0.00 0.00 1006.0
20260505185141 -17 192 17.7 24.1 0.00 0.00 0.00 1006.0
20260505184635 -17 195 17.7 24.1 0.00 0.00 0.00 1005.9
20260505184358 -17 10 16.1 25.7 0.00 0.00 0.00 1005.9
20260505183852 -17 233 16.1 25.7 0.00 0.00 0.00 1005.9
20260505183116 -17 10 17.7 25.7 0.00 0.00 0.00 1006.0
20260505182610 -17 221 17.7 25.7 0.00 0.00 0.00 1006.1
20260505182107 -17 173 17.7 24.1 0.00 0.00 0.00 1006.0
20260505181603 -17 181 17.7 25.7 0.00 0.00 0.00 1006.1
20260505181059 -17 192 17.7 25.7 0.00 0.00 0.00 1006.1
20260505180556 -17 217 17.7 22.5 0.00 0.00 0.00 1006.1
20260505180048 -17 203 17.7 25.7 0.00 0.00 0.00 1006.1
20260505175542 -17 204 17.7 25.7 0.00 0.00 0.00 1006.1
20260505175042 -17 215 19.3 25.7 0.00 0.00 0.00 1006.2
20260505174537 -17 223 19.3 25.7 0.00 0.00 0.00 1006.2
20260505174035 -17 201 19.3 25.7 0.00 0.00 0.00 1006.2
20260505173534 -17 205 17.7 24.1 0.00 0.00 0.00 1006.4
20260505173028 -17 217 17.7 24.1 0.00 0.00 0.00 1006.5
20260505172757 -17 10 16.1 20.9 0.00 0.00 0.00 1006.5
20260505172018 -17 219 16.1 24.1 0.00 0.00 0.00 1006.5
20260505171747 -17 198 17.7 24.1 0.00 0.00 0.00 1006.5
20260505171013 -17 10 17.7 24.1 0.00 0.00 0.00 1006.5
20260505170742 -17 10 17.7 24.1 0.00 0.00 0.00 1006.6
20260505170011 -17 10 19.3 24.1 0.00 0.00 0.00 1006.6
20260505165505 -17 10 17.7 24.1 0.00 0.00 0.00 1006.7
20260505165002 -17 194 17.7 24.1 0.00 0.00 0.00 1006.6
20260505164726 -17 203 16.1 24.1 0.00 0.00 0.00 1006.6
20260505163950 -17 10 16.1 24.1 0.00 0.00 0.00 1006.6
20260505163443 -17 193 17.7 25.7 0.00 0.00 0.00 1006.6
20260505162936 -17 221 17.7 25.7 0.00 0.00 0.00 1006.5
20260505162426 -17 10 16.1 22.5 0.00 0.00 0.00 1006.5
20260505161920 -17 10 16.1 22.5 0.00 0.00 0.00 1006.5
20260505161416 -17 202 16.1 24.1 0.00 0.00 0.00 1006.5
20260505161137 -17 10 16.1 24.1 0.00 0.00 0.00 1006.5
20260505160358 -17 10 16.1 24.1 0.00 0.00 0.00 1006.5
20260505153314 -17 210 16.1 24.1 0.00 0.00 0.00 1006.5
20260505152804 -17 198 16.1 20.9 0.00 0.00 0.00 1006.4
20260505151744 -17 215 14.5 20.9 0.00 0.00 0.00 1006.4
20260505151239 -17 201 16.1 20.9 0.00 0.00 0.00 1006.4
20260505150729 -17 10 14.5 20.9 0.00 0.00 0.00 1006.4
20260505150220 -17 181 14.5 22.5 0.00 0.00 0.00 1006.4
20260505140527 -17 10 14.5 20.9 0.00 0.00 0.00 1006.3
20260505124755 -17 10 12.9 19.3 0.00 0.00 0.00 1005.8
20260505124245 -17 202 11.3 17.7 0.00 0.00 0.00 1005.8
20260505124004 -17 202 11.3 17.7 0.00 0.00 0.00 1005.8
20260505123224 -17 10 12.9 19.3 0.00 0.00 0.00 1005.7
20260505122714 -17 219 12.9 19.3 0.00 0.00 0.00 1005.7
20260505122207 -17 10 11.3 17.7 0.00 0.00 0.00 1005.7
20260505121657 -17 10 9.7 14.5 0.00 0.00 0.00 1005.7
20260505121157 -17 10 9.7 16.1 0.00 0.00 0.00 1005.7
20260505120918 -17 10 8.0 16.1 0.00 0.00 0.00 1005.7
20260505120140 -17 10 9.7 16.1 0.00 0.00 0.00 1005.6
20260505115630 -17 10 9.7 16.1 0.00 0.00 0.00 1005.6
20260505115119 -17 10 9.7 14.5 0.00 0.00 0.00 1005.5
20260505114609 -17 10 8.0 14.5 0.00 0.00 0.00 1005.5
20260505114331 -17 10 8.0 14.5 0.00 0.00 0.00 1005.5
20260505113549 -17 10 8.0 14.5 0.00 0.00 0.00 1005.5
20260505113040 -17 10 6.4 14.5 0.00 0.00 0.00 1005.5
20260505112801 -17 186 6.4 9.7 0.00 0.00 0.00 1005.7
20260505112251 -17 10 6.4 12.9 0.00 0.00 0.00 1005.6
20260505111507 -17 10 6.4 12.9 0.00 0.00 0.00 1005.6
20260505110958 -17 10 6.4 9.7 0.00 0.00 0.00 1005.6
20260505110447 -17 184 6.4 9.7 0.00 0.00 0.00 1005.6
20260505101811 -17 10 3.2 8.0 0.00 0.00 0.00 1005.5
20260505100744 -17 194 4.8 8.0 0.00 0.00 0.00 1005.7
20260505100233 -17 184 4.8 9.7 0.00 0.00 0.00 1005.7
20260505095721 -17 192 3.2 8.0 0.00 0.00 0.00 1005.8
20260505095209 -17 190 4.8 8.0 0.00 0.00 0.00 1005.8
20260505094931 -17 10 4.8 8.0 0.00 0.00 0.00 1005.7
20260505094148 -17 172 4.8 8.0 0.00 0.00 0.00 1005.7
20260505093916 -17 190 4.8 9.7 0.00 0.00 0.00 1005.8
20260505093403 -17 10 3.2 9.7 0.00 0.00 0.00 1005.8
20260505092621 -17 10 1.6 8.0 0.00 0.00 0.00 1005.8
20260505092116 -17 10 1.6 6.4 0.00 0.00 0.00 1005.8
20260505091613 -17 189 3.2 8.0 0.00 0.00 0.00 1005.9
20260505091104 -17 10 4.8 8.0 0.00 0.00 0.00 1005.8
20260505090553 -17 194 4.8 9.7 0.00 0.00 0.00 1005.8
20260505090316 -17 195 4.8 9.7 0.00 0.00 0.00 1005.8
20260505085807 -17 200 4.8 12.9 0.00 0.00 0.00 1005.8
20260505085300 -17 194 6.4 12.9 0.00 0.00 0.00 1005.8
20260505084527 -17 204 8.0 12.9 0.00 0.00 0.00 1005.7
20260505084018 -17 10 8.0 14.5 0.00 0.00 0.00 1005.7
20260505083740 -17 10 8.0 16.1 0.00 0.00 0.00 1005.7
20260505083001 -17 10 8.0 14.5 0.00 0.00 0.00 1005.7
20260505082455 -17 10 8.0 14.5 0.00 0.00 0.00 1005.9
20260505081949 -17 10 8.0 14.5 0.00 0.00 0.00 1006.0
20260505081440 -17 185 9.7 16.1 0.00 0.00 0.00 1006.0
20260505080936 -17 10 8.0 16.1 0.00 0.00 0.00 1006.1
20260505080702 -17 10 8.0 14.5 0.00 0.00 0.00 1006.2
20260505075923 -17 10 8.0 14.5 0.00 0.00 0.00 1006.3
20260505075423 -17 10 9.7 14.5 0.00 0.00 0.00 1006.3
20260505075148 -17 10 9.7 16.1 0.00 0.00 0.00 1006.3
20260505074411 -17 10 9.7 16.1 0.00 0.00 0.00 1006.5
20260505073903 -17 194 8.0 12.9 0.00 0.00 0.00 1006.6
20260505073402 -17 10 8.0 14.5 0.00 0.00 0.00 1006.7
20260505072901 -17 10 9.7 16.1 0.00 0.00 0.00 1006.7
20260505072629 -17 10 9.7 16.1 0.00 0.00 0.00 1006.7
20260505072117 -17 217 8.0 14.5 0.00 0.00 0.00 1006.7
20260505071339 -17 205 8.0 16.1 0.00 0.00 0.00 1006.8
20260505070320 -17 210 8.0 12.9 0.00 0.00 0.00 1007.0
20260505065817 -17 194 6.4 12.9 0.00 0.00 0.00 1007.1
20260505065316 -17 191 6.4 11.3 0.00 0.00 0.00 1007.2
20260505064816 -17 204 6.4 12.9 0.00 0.00 0.00 1007.2
20260505064315 -17 10 6.4 12.9 0.00 0.00 0.00 1007.3
20260505063809 -17 10 6.4 12.9 0.00 0.00 0.00 1007.4
20260505063255 -17 10 6.4 12.9 0.00 0.00 0.00 1007.4
20260505062756 -17 10 8.0 14.5 0.00 0.00 0.00 1007.5
20260505062246 -17 199 8.0 14.5 0.00 0.00 0.00 1007.4
20260505061737 -17 10 8.0 12.9 0.00 0.00 0.00 1007.5
20260505061231 -17 204 6.4 14.5 0.00 0.00 0.00 1007.5
20260505060726 -17 196 6.4 14.5 0.00 0.00 0.00 1007.6
20260505060223 -17 10 6.4 9.7 0.00 0.00 0.00 1007.6
20260505055720 -17 190 6.4 9.7 0.00 0.00 0.00 1007.7
20260505055211 -17 200 8.0 12.9 0.00 0.00 0.00 1007.7
20260505054933 -17 213 8.0 12.9 0.00 0.00 0.00 1007.6
20260505054154 -17 208 8.0 12.9 0.00 0.00 0.00 1007.7
20260505053917 -17 195 8.0 14.5 0.00 0.00 0.00 1007.8
20260505053134 -17 10 8.0 16.1 0.00 0.00 0.00 1007.9
20260505052626 -17 210 9.7 16.1 0.00 0.00 0.00 1008.0
20260505052117 -17 203 6.4 14.5 0.00 0.00 0.00 1008.1
20260505051606 -17 10 1.6 11.3 0.00 0.00 0.00 1008.0
20260505050546 -17 10 0.0 6.4 0.00 0.00 0.00 1007.9
20260505050317 -17 213 0.0 6.4 0.00 0.00 0.00 1007.9
20260505041418 -17 10 12.9 17.7 0.00 0.00 0.00 1008.0
20260505040906 -17 194 12.9 17.7 0.00 0.00 0.00 1008.0
20260505040355 -17 10 11.3 17.7 0.00 0.00 0.00 1008.0
20260505035845 -17 10 9.7 17.7 0.00 0.00 0.00 1008.1
20260505035336 -17 10 9.7 16.1 0.00 0.00 0.00 1008.1
20260505034825 -17 10 9.7 16.1 0.00 0.00 0.00 1008.1
20260505034315 -17 10 9.7 16.1 0.00 0.00 0.00 1008.2
20260505033805 -17 10 9.7 16.1 0.00 0.00 0.00 1008.2
20260505033300 -17 10 9.7 16.1 0.00 0.00 0.00 1008.2
20260505032749 -17 10 11.3 16.1 0.00 0.00 0.00 1008.0
20260505032240 -17 10 9.7 16.1 0.00 0.00 0.00 1008.2
20260505031727 -17 10 9.7 16.1 0.00 0.00 0.00 1008.1
20260505031217 -17 10 11.3 16.1 0.00 0.00 0.00 1007.9
20260505030707 -17 10 11.3 16.1 0.00 0.00 0.00 1008.0
20260505030158 -17 10 9.7 16.1 0.00 0.00 0.00 1008.0
20260505025647 -17 10 9.7 16.1 0.00 0.00 0.00 1008.0
20260505025136 -17 10 11.3 17.7 0.00 0.00 0.00 1008.0
20260505024626 -17 10 11.3 17.7 0.00 0.00 0.00 1008.2
20260505024107 -17 10 8.0 14.5 0.00 0.00 0.00 1008.3
20260505023549 -17 10 8.0 14.5 0.00 0.00 0.00 1008.1
20260505023040 -17 10 9.7 16.1 0.00 0.00 0.00 1008.1
20260505022529 -17 10 9.7 16.1 0.00 0.00 0.00 1008.1
20260505022019 -17 10 8.0 16.1 0.00 0.00 0.00 1008.1
20260505021509 -17 10 8.0 14.5 0.00 0.00 0.00 1008.2
20260505020957 -17 10 8.0 14.5 0.00 0.00 0.00 1008.0